Weather History for Adler, Russia

Change the Weather History Date:

Tuesday, November 20, 2012

  Actual Average Record
Temperature  
Mean Temperature 56 °F -  
Max Temperature 67 °F - - ()
Min Temperature 46 °F - - ()
Degree Days  
Heating Degree Days 8    
Growing Degree Days 6 (Base 50)    
Moisture  
Dew Point 44 °F    
Average Humidity 69    
Maximum Humidity 88    
Minimum Humidity 37    
Precipitation  
Precipitation 0.00 in - - ()
Sea Level Pressure  
Sea Level Pressure 30.18 in    
Wind  
Wind Speed 7 mph ()    
Max Wind Speed 13 mph    
Max Gust Speed -    
Visibility 6.1 miles    
Events      
T = Trace of Precipitation, MM = Missing Value Source: Averaged Metar Reports

Daily Weather History Graph

Daily Weather History Graph

Search for Another Location

Airport:

Trip Planner

Search our weather history database for the weather conditions in past years. The results will help you decide how hot, cold, wet, or windy it might be!

Date:

Astronomy

Nov. 20, 2012 Rise Set
Actual Time 8:20 AM MSK 5:51 PM MSK
Civil Twilight 7:49 AM MSK 6:22 PM MSK
Nautical Twilight 7:14 AM MSK 6:57 PM MSK
Astronomical Twilight 6:40 AM MSK 7:31 PM MSK
Moon 1:38 PM MSK (11/20) No Moon Set
Length of Visible Light 10h 33m
Length of Day
9h 30m
Waxing Crescent, 47% of the Moon is Illuminated
Nov 20
Waxing Crescent
Nov 20
First Quarter
Nov 28
Full
Dec 6
Last Quarter
Dec 13
New

Hourly Weather History & Observations

Time (MSK) Temp. Windchill Dew Point Humidity Pressure Visibility Wind Dir Wind Speed Gust Speed Precip Events Conditions
12:00 AM 50.0 °F - 44.6 °F 82% 30.18 in 6.2 mi ENE 8.9 mph - N/A   Mostly Cloudy
12:30 AM 50.0 °F - 44.6 °F 82% 30.18 in 6.2 mi East 6.7 mph - N/A   Mostly Cloudy
1:00 AM 49 °F - 47 °F 88% 30.19 in 2 mi ENE 4.5 mph - -   Clear
1:00 AM 48.2 °F - 44.6 °F 87% 30.18 in 6.2 mi ENE 4.5 mph - N/A   Mostly Cloudy
1:30 AM 48.2 °F - 44.6 °F 87% 30.18 in 6.2 mi ENE 2.2 mph - N/A   Mostly Cloudy
2:00 AM 48.2 °F - 44.6 °F 87% 30.18 in 6.2 mi ENE 6.7 mph - N/A   Mostly Cloudy
2:30 AM 50.0 °F - 44.6 °F 82% 30.18 in 6.2 mi ENE 4.5 mph - N/A   Mostly Cloudy
3:00 AM 48.2 °F - 44.6 °F 87% 30.18 in 6.2 mi SSW 2.2 mph - N/A   Mostly Cloudy
3:30 AM 48.2 °F - 42.8 °F 82% 30.18 in 6.2 mi East 11.2 mph - N/A   Mostly Cloudy
4:00 AM 48 °F - 45 °F 84% 30.19 in 2 mi East 11.2 mph - -   Clear
4:00 AM 48.2 °F - 42.8 °F 82% 30.18 in 6.2 mi East 11.2 mph - N/A   Scattered Clouds
4:30 AM 48.2 °F - 42.8 °F 82% 30.18 in 6.2 mi ENE 6.7 mph - N/A   Scattered Clouds
5:00 AM 48.2 °F - 42.8 °F 82% 30.18 in 6.2 mi East 11.2 mph - N/A   Scattered Clouds
5:30 AM 48.2 °F - 42.8 °F 82% 30.18 in 6.2 mi East 11.2 mph - N/A   Scattered Clouds
6:00 AM 48.2 °F - 42.8 °F 82% 30.18 in 6.2 mi East 13.4 mph - N/A   Scattered Clouds
6:30 AM 48.2 °F - 41.0 °F 76% 30.18 in 6.2 mi ENE 13.4 mph - N/A   Scattered Clouds
7:00 AM 48 °F - 43 °F 75% 30.18 in 2 mi ENE 11.2 mph - -   Clear
7:00 AM 48.2 °F - 41.0 °F 76% 30.18 in 6.2 mi East 13.4 mph - N/A   Scattered Clouds
7:30 AM 46.4 °F 40.5 °F 41.0 °F 81% 30.18 in 6.2 mi East 13.4 mph - N/A   Scattered Clouds
8:00 AM 48.2 °F - 41.0 °F 76% 30.18 in 6.2 mi East 11.2 mph - N/A   Partly Cloudy
8:30 AM 48.2 °F - 41.0 °F 76% 30.18 in 6.2 mi ENE 11.2 mph - N/A   Partly Cloudy
9:00 AM 50.0 °F - 41.0 °F 71% 30.18 in 6.2 mi East 6.7 mph - N/A   Partly Cloudy
9:30 AM 50.0 °F - 42.8 °F 76% 30.21 in 6.2 mi East 13.4 mph - N/A   Partly Cloudy
10:00 AM 50 °F - 43 °F 68% 30.21 in 12 mi East 13.4 mph - -   Clear
10:00 AM 51.8 °F - 42.8 °F 71% 30.21 in 6.2 mi East 13.4 mph - N/A   Partly Cloudy
10:30 AM 53.6 °F - 42.8 °F 67% 30.21 in 6.2 mi East 13.4 mph - N/A   Partly Cloudy
11:00 AM 55.4 °F - 42.8 °F 63% 30.21 in 6.2 mi East 11.2 mph - N/A   Partly Cloudy
11:30 AM 59.0 °F - 44.6 °F 59% 30.21 in 6.2 mi ENE 8.9 mph - N/A   Partly Cloudy
12:00 PM 60.8 °F - 42.8 °F 52% 30.18 in 6.2 mi East 6.7 mph - N/A   Partly Cloudy
12:30 PM 62.6 °F - 44.6 °F 52% 30.18 in 6.2 mi East 4.5 mph - N/A   Partly Cloudy
1:00 PM 63 °F - 47 °F 46% 30.19 in 12 mi East 4.5 mph - -   Clear
1:00 PM 64.4 °F - 44.6 °F 49% 30.18 in 6.2 mi East 4.5 mph - N/A   Partly Cloudy
1:30 PM 66.2 °F - 44.6 °F 46% 30.18 in 6.2 mi Calm Calm - N/A   Partly Cloudy
2:00 PM 64.4 °F - 46.4 °F 52% 30.18 in 6.2 mi South 4.5 mph - N/A   Partly Cloudy
2:30 PM 64.4 °F - 46.4 °F 52% 30.15 in 6.2 mi SSE 2.2 mph - N/A   Partly Cloudy
3:00 PM 66.2 °F - 44.6 °F 46% 30.15 in 6.2 mi Calm Calm - N/A   Partly Cloudy
3:30 PM 66.2 °F - 39.2 °F 37% 30.15 in 6.2 mi SE 4.5 mph - N/A   Partly Cloudy
4:00 PM 66 °F - 46 °F 38% 30.17 in 12 mi SE 2.2 mph - -   Clear
4:00 PM 66.2 °F - 42.8 °F 43% 30.15 in 6.2 mi SSE 4.5 mph - N/A   Partly Cloudy
4:30 PM 64.4 °F - 41.0 °F 42% 30.15 in 6.2 mi SSE 4.5 mph - N/A   Partly Cloudy
5:00 PM 64.4 °F - 41.0 °F 42% 30.15 in 6.2 mi SSE 4.5 mph - N/A   Partly Cloudy
5:30 PM 62.6 °F - 42.8 °F 48% 30.15 in 6.2 mi South 2.2 mph - N/A   Partly Cloudy
6:00 PM 55.4 °F - 44.6 °F 67% 30.15 in 6.2 mi ENE 4.5 mph - N/A   Partly Cloudy
6:30 PM 53.6 °F - 46.4 °F 77% 30.15 in 6.2 mi East 6.7 mph - N/A   Partly Cloudy
7:00 PM 64 °F - 47 °F 44% 30.17 in 2 mi East 4.5 mph - -   Clear
7:00 PM 51.8 °F - 44.6 °F 76% 30.15 in 6.2 mi ENE 6.7 mph - N/A   Partly Cloudy
7:30 PM 53.6 °F - 44.6 °F 72% 30.15 in 6.2 mi Calm Calm - N/A   Partly Cloudy
8:00 PM 51.8 °F - 44.6 °F 76% 30.15 in 6.2 mi East 2.2 mph - N/A   Clear
8:30 PM 51.8 °F - 44.6 °F 76% 30.15 in 6.2 mi ENE 8.9 mph - N/A   Clear
9:00 PM 51.8 °F - 44.6 °F 76% 30.15 in 6.2 mi East 6.7 mph - N/A   Clear
9:30 PM 51.8 °F - 44.6 °F 76% 30.15 in 6.2 mi East 6.7 mph - N/A   Clear
10:00 PM 52 °F - 45 °F 71% 30.18 in 2 mi ENE 6.7 mph - -  
10:00 PM 51.8 °F - 44.6 °F 76% 30.18 in 6.2 mi ENE 6.7 mph - N/A   Clear
10:30 PM 50.0 °F - 42.8 °F 76% 30.18 in 6.2 mi East 8.9 mph - N/A   Clear
11:00 PM 50.0 °F - 42.8 °F 76% 30.18 in 6.2 mi NE 6.7 mph - N/A   Clear
11:30 PM 50.0 °F - 42.8 °F 76% 30.18 in 6.2 mi ENE 11.2 mph - N/A   Clear